Time,TemperatureF,DewpointF,PressureIn,WindDirection,WindDirectionDegrees,WindSpeedMPH,WindSpeedGustMPH,Humidity,HourlyPrecipIn,Conditions,Clouds,dailyrainin,SoftwareType,DateUTC
2013-05-15 16:24:00,71.5,42.9,-100.00,WSW,255,4.9,10.7,35,0.00,,,0.00,WSDL version 420,2013-05-15 23:24:00,
2013-05-15 16:29:00,71.7,41.9,29.77,WNW,287,3.2,11.0,34,0.00,,,0.00,WSDL version 420,2013-05-15 23:29:00,
2013-05-15 16:34:00,72.2,42.5,29.77,WNW,301,3.6,11.0,35,0.00,,,0.00,WSDL version 420,2013-05-15 23:34:00,
2013-05-15 16:39:00,72.8,43.2,29.77,SSE,155,3.0,9.6,34,0.00,,,0.00,WSDL version 420,2013-05-15 23:39:00,
2013-05-15 16:45:00,72.7,42.6,29.77,West,259,4.4,9.6,33,0.00,,,0.00,WSDL version 420,2013-05-15 23:45:00,
2013-05-15 16:52:00,72.4,42.2,29.77,SW,220,5.0,11.0,33,0.00,,,0.00,WSDL version 420,2013-05-15 23:52:00,
2013-05-15 16:57:00,71.6,41.0,29.77,WSW,242,5.6,12.1,33,0.00,,,0.00,WSDL version 420,2013-05-15 23:57:00,
2013-05-15 17:02:00,71.6,41.0,29.77,SSW,197,4.0,12.1,33,0.00,,,0.00,WSDL version 420,2013-05-16 00:02:00,
2013-05-15 17:07:00,71.6,41.1,29.77,NNW,335,4.2,12.5,34,0.00,,,0.00,WSDL version 420,2013-05-16 00:07:00,
2013-05-15 17:12:00,71.3,41.5,29.77,NE,42,3.3,12.5,34,0.00,,,0.00,WSDL version 420,2013-05-16 00:12:00,
2013-05-15 17:17:00,71.1,41.3,29.77,SW,223,5.6,8.7,34,0.00,,,0.00,WSDL version 420,2013-05-16 00:17:00,
2013-05-15 17:22:00,71.0,41.2,29.77,WSW,245,4.0,8.7,34,0.00,,,0.00,WSDL version 420,2013-05-16 00:22:00,
2013-05-15 17:27:00,70.8,41.1,29.77,WSW,248,5.6,8.7,34,0.00,,,0.00,WSDL version 420,2013-05-16 00:27:00,
2013-05-15 17:32:00,70.5,40.8,29.77,SW,230,3.0,8.7,34,0.00,,,0.00,WSDL version 420,2013-05-16 00:32:00,
2013-05-15 17:37:00,70.5,41.5,29.77,NW,315,3.2,9.6,35,0.00,,,0.00,WSDL version 420,2013-05-16 00:37:00,
2013-05-15 17:42:00,70.4,41.4,29.77,WNW,298,4.8,10.1,35,0.00,,,0.00,WSDL version 420,2013-05-16 00:42:00,
2013-05-15 17:47:00,70.1,41.3,29.77,NW,315,3.9,10.5,36,0.00,,,0.00,WSDL version 420,2013-05-16 00:47:00,
2013-05-15 17:52:00,69.9,41.7,29.77,West,280,3.9,10.5,36,0.00,,,0.00,WSDL version 420,2013-05-16 00:52:00,
2013-05-15 17:57:00,69.6,41.8,29.77,South,180,3.0,6.5,37,0.00,,,0.00,WSDL version 420,2013-05-16 00:57:00,
2013-05-15 18:02:00,69.6,42.2,29.80,NNW,345,2.6,6.0,37,0.00,,,0.00,WSDL version 420,2013-05-16 01:02:00,
2013-05-15 18:07:00,69.3,41.9,29.80,SW,214,3.0,5.4,37,0.00,,,0.00,WSDL version 420,2013-05-16 01:07:00,
2013-05-15 18:12:00,68.8,41.8,29.80,WSW,245,2.8,8.5,38,0.00,,,0.00,WSDL version 420,2013-05-16 01:12:00,
2013-05-15 18:17:00,68.4,41.8,29.77,North,355,4.9,12.3,38,0.00,,,0.00,WSDL version 420,2013-05-16 01:17:00,
2013-05-15 18:22:00,68.4,42.3,29.77,WSW,253,3.0,12.3,39,0.00,,,0.00,WSDL version 420,2013-05-16 01:22:00,
2013-05-15 18:27:00,68.2,42.4,29.77,NW,305,3.5,10.1,40,0.00,,,0.00,WSDL version 420,2013-05-16 01:27:00,
2013-05-15 18:32:00,67.4,42.0,29.77,WNW,289,3.9,10.1,40,0.00,,,0.00,WSDL version 420,2013-05-16 01:32:00,
2013-05-15 18:37:00,67.1,42.0,29.77,NW,310,2.7,8.5,40,0.00,,,0.00,WSDL version 420,2013-05-16 01:37:00,
2013-05-15 18:42:00,67.1,42.5,29.77,WSW,255,2.1,8.5,41,0.00,,,0.00,WSDL version 420,2013-05-16 01:42:00,
2013-05-15 18:47:00,66.8,42.3,29.77,WSW,238,2.8,6.3,41,0.00,,,0.00,WSDL version 420,2013-05-16 01:47:00,
2013-05-15 18:52:00,66.5,42.6,29.77,WNW,293,3.0,4.7,42,0.00,,,0.00,WSDL version 420,2013-05-16 01:52:00,
2013-05-15 18:57:00,66.2,42.4,29.77,WSW,238,3.9,6.9,42,0.00,,,0.00,WSDL version 420,2013-05-16 01:57:00,
2013-05-15 19:02:00,65.5,41.9,29.77,SW,223,3.7,6.9,43,0.00,,,0.00,WSDL version 420,2013-05-16 02:02:00,
2013-05-15 19:07:00,65.3,42.3,29.77,SW,236,1.7,6.3,43,0.00,,,0.00,WSDL version 420,2013-05-16 02:07:00,
2013-05-15 19:12:00,65.2,42.2,29.77,SW,223,3.1,4.9,43,0.00,,,0.00,WSDL version 420,2013-05-16 02:12:00,
2013-05-15 19:17:00,65.1,42.0,29.77,WSW,245,3.1,5.8,43,0.00,,,0.00,WSDL version 420,2013-05-16 02:17:00,
2013-05-15 19:22:00,64.8,41.9,29.77,SW,219,4.4,6.9,43,0.00,,,0.00,WSDL version 420,2013-05-16 02:22:00,
2013-05-15 19:27:00,64.3,41.8,29.77,WSW,243,3.2,8.7,44,0.00,,,0.00,WSDL version 420,2013-05-16 02:27:00,
2013-05-15 19:32:00,64.1,41.7,29.77,SW,217,3.8,8.7,44,0.00,,,0.00,WSDL version 420,2013-05-16 02:32:00,
2013-05-15 19:37:00,63.7,41.4,29.77,SW,235,3.9,7.6,44,0.00,,,0.00,WSDL version 420,2013-05-16 02:37:00,
2013-05-15 19:42:00,63.4,41.1,29.77,ENE,71,2.6,7.6,44,0.00,,,0.00,WSDL version 420,2013-05-16 02:42:00,
2013-05-15 19:49:00,62.9,40.7,29.77,WSW,248,3.8,8.5,44,0.00,,,0.00,WSDL version 420,2013-05-16 02:49:00,
2013-05-15 19:54:00,62.6,41.0,29.77,SSW,205,4.3,8.5,45,0.00,,,0.00,WSDL version 420,2013-05-16 02:54:00,
2013-05-15 19:59:00,62.3,40.7,29.77,SW,228,3.5,9.6,45,0.00,,,0.00,WSDL version 420,2013-05-16 02:59:00,
2013-05-15 20:04:00,61.9,40.5,29.77,SW,235,3.9,9.6,46,0.00,,,0.00,WSDL version 420,2013-05-16 03:04:00,
2013-05-15 20:09:00,61.7,40.7,29.77,WSW,239,3.2,7.4,46,0.00,,,0.00,WSDL version 420,2013-05-16 03:09:00,
2013-05-15 20:14:00,61.3,40.7,29.77,SW,223,3.4,7.4,47,0.00,,,0.00,WSDL version 420,2013-05-16 03:14:00,
2013-05-15 20:19:00,61.0,40.9,29.77,South,180,3.4,6.5,48,0.00,,,0.00,WSDL version 420,2013-05-16 03:19:00,
2013-05-15 20:24:00,60.8,41.1,29.77,West,264,3.2,6.5,49,0.00,,,0.00,WSDL version 420,2013-05-16 03:24:00,
2013-05-15 20:31:00,60.4,41.1,29.77,SW,230,4.3,7.4,49,0.00,,,0.00,WSDL version 420,2013-05-16 03:31:00,
2013-05-15 20:36:00,60.1,41.4,29.77,SW,228,4.3,7.4,50,0.00,,,0.00,WSDL version 420,2013-05-16 03:36:00,
2013-05-15 20:41:00,59.8,41.5,29.77,SW,225,3.9,7.6,51,0.00,,,0.00,WSDL version 420,2013-05-16 03:41:00,
2013-05-15 20:46:00,59.6,41.6,29.77,SW,218,3.7,7.6,52,0.00,,,0.00,WSDL version 420,2013-05-16 03:46:00,
2013-05-15 20:51:00,59.4,41.8,29.77,SW,228,3.5,8.1,52,0.00,,,0.00,WSDL version 420,2013-05-16 03:51:00,
2013-05-15 20:56:00,59.3,41.7,29.77,SW,215,3.6,8.1,52,0.00,,,0.00,WSDL version 420,2013-05-16 03:56:00,
2013-05-15 21:01:00,59.1,42.0,29.77,SW,228,3.3,6.0,53,0.00,,,0.00,WSDL version 420,2013-05-16 04:01:00,
2013-05-15 21:06:00,59.0,42.3,29.77,SW,233,3.4,5.8,54,0.00,,,0.00,WSDL version 420,2013-05-16 04:06:00,
2013-05-15 21:11:00,59.0,42.6,29.77,SW,236,3.4,5.8,55,0.00,,,0.00,WSDL version 420,2013-05-16 04:11:00,
2013-05-15 21:16:00,58.9,42.8,29.80,SW,218,3.6,5.6,56,0.00,,,0.00,WSDL version 420,2013-05-16 04:16:00,
2013-05-15 21:21:00,58.8,43.2,29.80,SW,228,3.4,5.8,56,0.00,,,0.00,WSDL version 420,2013-05-16 04:21:00,
2013-05-15 21:26:00,58.8,43.5,29.80,SSW,209,4.3,6.5,57,0.00,,,0.00,WSDL version 420,2013-05-16 04:26:00,
2013-05-15 21:31:00,58.7,43.8,29.77,SSW,208,4.0,6.5,58,0.00,,,0.00,WSDL version 420,2013-05-16 04:31:00,
2013-05-15 21:36:00,58.6,44.1,29.77,SW,233,4.1,6.5,59,0.00,,,0.00,WSDL version 420,2013-05-16 04:36:00,
2013-05-15 21:41:00,58.5,43.9,29.77,SSW,208,4.0,8.1,58,0.00,,,0.00,WSDL version 420,2013-05-16 04:41:00,
2013-05-15 21:46:00,58.5,44.1,29.80,SW,231,4.0,8.1,59,0.00,,,0.00,WSDL version 420,2013-05-16 04:46:00,
2013-05-15 21:51:00,58.3,43.9,29.80,WSW,240,4.0,7.4,58,0.00,,,0.00,WSDL version 420,2013-05-16 04:51:00,
2013-05-15 21:56:00,58.2,43.9,29.80,SW,228,4.3,7.8,59,0.00,,,0.00,WSDL version 420,2013-05-16 04:56:00,
2013-05-15 22:01:00,58.1,44.2,29.80,SW,233,3.9,7.8,60,0.00,,,0.00,WSDL version 420,2013-05-16 05:01:00,
2013-05-15 22:06:00,58.0,44.2,29.80,SW,223,3.8,7.4,60,0.00,,,0.00,WSDL version 420,2013-05-16 05:06:00,
2013-05-15 22:11:00,57.9,44.1,29.80,WSW,240,3.8,7.4,60,0.00,,,0.00,WSDL version 420,2013-05-16 05:11:00,
2013-05-15 22:16:00,57.9,44.2,29.80,SW,225,3.9,7.4,60,0.00,,,0.00,WSDL version 420,2013-05-16 05:16:00,
2013-05-15 22:21:00,57.8,44.1,29.80,WSW,242,4.8,7.4,61,0.00,,,0.00,WSDL version 420,2013-05-16 05:21:00,
2013-05-15 22:26:00,57.7,44.2,29.80,SW,223,4.0,6.9,61,0.00,,,0.00,WSDL version 420,2013-05-16 05:26:00,
2013-05-15 22:31:00,57.6,44.3,29.80,SSW,208,3.2,8.1,61,0.00,,,0.00,WSDL version 420,2013-05-16 05:31:00,
2013-05-15 22:36:00,57.6,44.2,29.80,SSW,205,2.8,8.1,61,0.00,,,0.00,WSDL version 420,2013-05-16 05:36:00,
2013-05-15 22:41:00,57.5,44.5,29.80,SSW,195,2.6,5.6,62,0.00,,,0.00,WSDL version 420,2013-05-16 05:41:00,
2013-05-15 22:46:00,57.4,45.0,29.80,SSW,211,3.6,5.6,64,0.00,,,0.00,WSDL version 420,2013-05-16 05:46:00,
2013-05-15 22:51:00,57.2,45.0,29.80,SW,223,3.5,5.8,64,0.00,,,0.00,WSDL version 420,2013-05-16 05:51:00,
2013-05-15 22:56:00,57.2,45.1,29.80,SSW,205,2.3,5.8,64,0.00,,,0.00,WSDL version 420,2013-05-16 05:56:00,
2013-05-15 23:01:00,57.2,45.1,29.80,SW,233,2.4,3.8,64,0.00,,,0.00,WSDL version 420,2013-05-16 06:01:00,
2013-05-15 23:06:00,57.2,45.3,29.80,SSW,198,2.0,3.8,64,0.00,,,0.00,WSDL version 420,2013-05-16 06:06:00,
2013-05-15 23:11:00,57.2,45.5,29.80,SW,231,3.6,6.3,66,0.00,,,0.00,WSDL version 420,2013-05-16 06:11:00,
2013-05-15 23:16:00,57.0,46.1,29.80,South,186,2.9,6.9,67,0.00,,,0.00,WSDL version 420,2013-05-16 06:16:00,
2013-05-15 23:21:00,56.8,46.0,29.80,WNW,284,3.2,6.9,67,0.00,,,0.00,WSDL version 420,2013-05-16 06:21:00,
2013-05-15 23:26:00,56.8,46.0,29.80,SW,236,2.6,5.4,67,0.00,,,0.00,WSDL version 420,2013-05-16 06:26:00,
2013-05-15 23:31:00,56.7,46.1,29.80,ESE,121,2.3,4.3,68,0.00,,,0.00,WSDL version 420,2013-05-16 06:31:00,
2013-05-15 23:36:00,56.7,46.2,29.80,SW,228,2.9,5.4,68,0.00,,,0.00,WSDL version 420,2013-05-16 06:36:00,
2013-05-15 23:41:00,56.7,46.2,29.80,SSW,211,2.8,5.6,68,0.00,,,0.00,WSDL version 420,2013-05-16 06:41:00,
2013-05-15 23:46:00,56.7,46.7,29.80,SW,219,3.1,6.3,70,0.00,,,0.00,WSDL version 420,2013-05-16 06:46:00,
2013-05-15 23:51:00,56.7,47.0,29.80,WSW,240,3.3,6.3,70,0.00,,,0.00,WSDL version 420,2013-05-16 06:51:00,
2013-05-15 23:56:00,56.5,47.1,29.80,SSW,208,4.6,5.8,72,0.00,,,0.00,WSDL version 420,2013-05-16 06:56:00,